036  
ASUS43 KMPX 290110  
RWRMN  
WEATHER ROUNDUP FOR MINNESOTA  
NATIONAL WEATHER SERVICE TWIN CITIES/CHANHASSEN MN  
700 PM CST MON NOV 28 2022  
 
NOTE: "FAIR" INDICATES FEW OR NO CLOUDS BELOW 12,000 FEET WITH NO  
SIGNIFICANT WEATHER AND/OR S TO VISIBILITY
. N/A MEANS  
CURRENT SKY AND/OR WEATHER CONDITIONS ARE NOT AVAILABLE.  
 
MNZ060>063-068>070-290200-  
TWIN CITIES METRO  
 
CITY SKY/WX TMP DP RH WIND PRES REMARKS
 
TWIN CITIES MOCLDY 36 28 73 S3 29.65S  
ST PAUL MOCLDY 34 28 79 SE7 29.66S WCI 28  
CRYSTAL MOCLDY 31 25 78 CALM 29.64R  
BLAINE PTCLDY 37 28 70 CALM 29.65R  
LAKEVILLE MOCLDY 34 28 80 CALM 29.66S  
EDEN PRAIRIE MOCLDY 37 28 70 W3 29.64R  
SOUTH ST PAUL MOCLDY 36 29 75 CALM 29.65S  
LAKE ELMO FAIR 34 28 80 S7 29.66S WCI 28  

 
MNZ001>005-007-008-013>017-022>024-027-028-290200-  
NORTHWEST MINNESOTA  
 
CITY SKY/WX TMP DP RH WIND PRES REMARKS
 
BEMIDJI MOCLDY 31 28 86 CALM 29.59R  
HALLOCK CLOUDY 27 19 74 SW15 29.54S WCI 15  
ROSEAU CLOUDY 28 21 74 SW17 29.54R WCI 16  
WARROAD N/A 28 25 86 SW15 29.54R WCI 17  
THIEF RVR FALL PTCLDY 24 18 77 SW12 29.60R WCI 13  
CROOKSTON N/A 25 16 68 SW9 29.62S WCI 15  
FOSSTON PTCLDY 25 16 68 W12 29.62R WCI 14  
DETROIT LAKES MOCLDY 28 23 80 W12 29.63R WCI 18  
MOORHEAD PTCLDY 28 19 69 SW12G22 29.69R WCI 18  
PARK RAPIDS CLOUDY 32 27 81 W10 29.60R WCI 24  
MAHNOMEN MOCLDY 27 24 86 W7 29.62R WCI 20  

 
MNZ006-009>011-018-025>026-290200-  
NORTH CENTRAL MINNESOTA  
 
CITY SKY/WX TMP DP RH WIND PRES REMARKS
 
BAUDETTE FLURRIES 32 28 85 S9 29.53S WCI 24  
FLAG ISLAND N/A 30 28 93 S20 29.51S VSB 1 WCI 18  
INTL FALLS LGT SNOW 30 27 88 SE7 29.57S FOG WCI 23  
WASKISH CLOUDY 34 30 86 S5 29.57S WCI 30  
BIG FORK CLOUDY 32 28 86 SE6 29.63F WCI 26  
LONGVILLE PTCLDY 28 25 86 S5 29.59S WCI 23  
GRAND RAPIDS FLURRIES 30 27 88 SE5 29.62S WCI 25  
CRANE LAKE CLOUDY 28 27 93 CALM 29.64R  
ORR CLOUDY 28 27 93 S7 29.58S WCI 21  
COOK CLOUDY 30 27 86 CALM 29.61R  
WALKER CLOUDY 32 25 75 SW5 29.60R WCI 27  

 
MNZ012-019>021-037-290200-  
NORTHEAST MINNESOTA  
 
CITY SKY/WX TMP DP RH WIND PRES REMARKS
 
DULUTH CLOUDY 32 26 78 SE6 29.63R WCI 26  
ELY CLOUDY 30 27 86 SE8 29.62F WCI 23  
HIBBING CLOUDY 29 26 89 SE6 29.62R WCI 23  
EVELETH CLOUDY 30 27 86 CALM 29.64R  
DULUTH HARBOR CLOUDY 34 30 86 CALM 29.65S  
TWO HARBORS CLOUDY 30 30 100 N3 29.63F  
GRAND MARAIS N/A 37 31 78 SE10 29.69F  
G MARAIS ARPRT CLOUDY 28 28 100 SE5 29.63S WCI 23  

 
MNZ029>031-032-039>041-046>048-054>057-064-290200-  
WEST CENTRAL MINNESOTA  
 
CITY SKY/WX TMP DP RH WIND PRES REMARKS
 
FERGUS FALLS MOCLDY 28 25 86 NW9 29.66R WCI 20  
WHEATON N/A 30 25 80 W5 29.70R WCI 25  
MORRIS N/A 30 21 69 NW8 29.69R WCI 23  
ALEXANDRIA CLOUDY 32 27 81 W14G20 29.66R WCI 22  
ELBOW LAKE FAIR 30 24 76 NW8 29.68R WCI 23  
WADENA CLOUDY 34 27 75 W6 29.62R WCI 29  
GLENWOOD MOCLDY 30 28 93 W13 29.66R WCI 20  
APPLETON N/A 34 25 69 N10 29.70R WCI 26  
BENSON MOCLDY 30 25 80 NW12 29.70R WCI 21  
ORTONVILLE N/A 30 25 80 W3 29.70R  
MADISON MOCLDY 34 27 75 NW5 29.73R WCI 30  
WILLMAR FAIR 34 28 80 W3 29.70R  

 
MNZ033>034-036-042>043-049>051-058-059-290200-  
CENTRAL MINNESOTA  
 
CITY SKY/WX TMP DP RH WIND PRES REMARKS
 
ST CLOUD PTCLDY 30 26 85 CALM 29.65R  
SAUK CENTRE FAIR 30 28 91 W8 29.65R WCI 23  
PAYNESVILLE PTCLDY 30 27 86 W3 29.65R  
AITKIN MOCLDY 30 27 86 CALM 29.61F  
PINE RIVER CLOUDY 30 27 86 CALM 29.64S  
BRAINERD MOCLDY 32 24 72 CALM 29.61F  
STAPLES N/A 34 27 75 W5 29.62R WCI 30  
LONG PRAIRIE FAIR 30 27 86 W5 29.65R WCI 25  
CAMP RIPLEY MOCLDY 30 26 83 SW5 29.62R WCI 25  
LITCHFIELD PTCLDY 32 27 80 W3 29.66R  
BUFFALO PTCLDY 32 28 86 W3 29.66R  
MAPLE LAKE PTCLDY 33 27 79 CALM 29.67R  

 
MNZ037-044-045-052-053-290200-  
EAST CENTRAL MINNESOTA  
 
CITY SKY/WX TMP DP RH WIND PRES REMARKS
 
PRINCETON PTCLDY 27 25 93 CALM 29.66R  
MORA MOCLDY 30 27 86 CALM 29.68R  
CAMBRIDGE PTCLDY 30 18 59 CALM 29.66R  
RUSH CITY MOCLDY 32 29 86 CALM 29.66R  
MOOSE LAKE CLOUDY 32 27 80 CALM 29.64S  
HINCKLEY MOCLDY 28 27 93 CALM 29.64S  
CLOQUET CLOUDY 30 27 86 CALM 29.62R  
MCGREGOR CLOUDY 32 28 86 CALM 29.62F  

 
MNZ071>073-080-081-089-090-097-098-290200-  
SOUTHWEST MINNESOTA  
 
CITY SKY/WX TMP DP RH WIND PRES REMARKS
 
MONTEVIDEO MOCLDY 32 25 74 NW7 29.70R WCI 26  
GRANITE FALLS PTCLDY 33 29 85 NW7 29.71R WCI 27  
CANBY MOCLDY 32 26 78 NW3 29.72R  
MARSHALL PTCLDY 30 26 85 W7 29.71R WCI 23  
REDWOOD FALLS PTCLDY 33 26 75 NW7 29.68R WCI 27  
OLIVIA CLEAR 32 28 86 NW5 29.68R WCI 27  
WINDOM MOCLDY 34 25 69 NW6 29.67R WCI 29  
WORTHINGTON MOCLDY 35 25 66 NW9 29.68R WCI 28  
JACKSON MOCLDY 34 27 75 W5 29.68R WCI 30  
TRACY PTCLDY 28 28 100 W6 29.70R WCI 22  
SLAYTON MOCLDY 31 25 78 NW7 29.69S WCI 25  

 
MNZ065>067-074>077-082>085-091>093-290200-  
SOUTH CENTRAL MINNESOTA  
 
CITY SKY/WX TMP DP RH WIND PRES REMARKS
 
MANKATO MOCLDY 40 28 62 W9 29.67R  
ST JAMES MOCLDY 36 27 69 NW6 29.67R  
FAIRMONT MOCLDY 37 27 67 SW6 29.68  
GLENCOE PTCLDY 32 28 85 W3 29.66R  
FARIBAULT MOCLDY 36 30 80 SE3 29.66S  
OWATONNA MOCLDY 37 30 75 S8 29.67R  
WASECA MOCLDY 34 30 86 S6 29.68R WCI 29  
ALBERT LEA MOCLDY 39 28 65 S5 29.68R  

 
MNZ078>079-086>088-094>096-290200-  
SOUTHEAST MINNESOTA  
 
CITY SKY/WX TMP DP RH WIND PRES REMARKS
 
ROCHESTER PTCLDY 36 28 73 S10 29.70R  
RED WING MOCLDY 37 27 65 SE5 29.67S  
STANTON MOCLDY 37 29 74 S7 29.66S  
DODGE CENTER MOCLDY 34 28 80 S9 29.67S WCI 26  
WINONA MOCLDY 39 27 60 S3 29.73R  
AUSTIN MOCLDY 37 28 70 S6 29.69R  
PRESTON PTCLDY 37 29 71 S14 29.71R  

 
ABBREVIATIONS USED IN REMARKS  
TC - TEMPERATURES IN CELSIUS  
WCI - WIND CHILL INDEX  
HX - HEAT INDEX  
VSB - VISIBILITY  

 
 
 
CLICK HERE TO GO TO PREVIOUS BULLETINS.

The Nexlab MN Page Main Text Page